EHI
0 0 0 0 0 0 0 0 0 0 0 0 0 0 0 0 0 0 0 0 0 0 0 0 0 0 0 0 1 1 1 1 1 2 4 5 4 3 3 2 1 0 0 0
0 0 0 0 0 0 0 0 0 0 0 0 0 0 0 0 0 0 0 0 0 0 0 0 0 0 0 1 2 2 1 1 1 2 4 4 3 3 2 1 0 1 1 0
0 0 0 0 0 0 0 0 0 0 0 0 0 0 0 0 0 0 0 0 0 0 0 0 0 1 1 2 3 4 3 3 2 3 4 3 3 2 1 0 1 2 2 1
0 0 0 0 0 0 0 0 0 0 0 0 0 0 0 0 0 0 0 0 0 0 0 0 0 1 2 3 4 5 5 5 4 4 5 5 3 2 1 1 2 3 3 2
0 0 0 0 0 0 0 0 0 0 0 0 0 0 0 0 0 0 0 0 0 0 0 0 0 1 1 2 3 4 5 5 5 6 6 6 4 2 2 3 3 3 3 3
0 0 0 0 0 0 0 0 0 0 0 0 0 0 0 0 0 0 0 0 0 0 0 0 0 0 0 1 1 1 2 3 4 5 5 5 4 2 1 2 3 3 3 3
0 0 0 0 0 0 0 0 0 0 0 0 0 0 0 0 0 0 0 0 0 0 0 0 0 0 0 0 0 1 1 2 3 4 4 4 3 2 0 1 2 2 3 3
0 0 0 0 0 0 0 0 0 0 0 0 0 0 0 0 0 0 0 0 0 0 0 0 0 0 0 0 1 2 2 3 3 4 4 4 3 2 0 0 1 1 1 2
0 0 0 0 0 0 0 0 0 0 0 0 0 0 0 0 0 0 0 0 0 0 0 0 0 0 0 0 1 2 3 3 3 4 4 4 3 2 1 0 0 0 1 2
0 0 0 0 0 0 0 0 0 0 0 0 0 0 0 0 0 0 0 0 0 0 0 0 0 0 0 0 1 2 3 3 3 3 3 3 3 2 1 0 0 1 2 2
0 0 0 0 0 0 0 0 0 0 0 0 0 0 0 0 0 0 0 0 0 0 0 0 0 0 0 0 0 1 2 2 2 2 2 2 2 1 0 0 0 1 2 2
0 0 0 0 0 0 0 0 0 0 0 0 0 0 0 0 0 0 0 0 0 0 0 0 0 0 0 0 0 0 1 1 1 0 1 1 1 0 0 0 0 0 1 2
0 0 0 0 0 0 0 0 0 0 0 0 0 0 0 0 0 0 0 0 0 0 0 0 1 1 0 0 0 0 0 0 0 0 0 0 0 0 0 0 0 0 0 1
0 0 0 0 0 0 0 0 0 0 0 0 0 0 0 0 0 0 0 0 0 0 0 0 1 1 0 0 0 0 0 0 0 0 0 0 0 0 0 0 0 0 0 0
0 0 0 0 0 0 0 0 0 0 0 0 0 0 0 0 0 0 0 0 0 0 0 0 1 1 0 0 0 0 0 0 0 0 0 0 0 0 0 0 0 0 0 0
0 0 0 0 0 0 0 0 0 0 0 0 0 0 0 0 0 0 0 0 0 0 0 0 0 0 0 0 0 0 0 0 0 0 0 0 0 0 0 0 0 0 0 0
0 0 0 0 0 0 0 0 0 0 0 0 0 0 0 0 0 0 0 0 0 0 0 0 0 0 0 0 0 0 1 0 0 0 0 0 0 0 0 0 0 0 0 0
0 0 0 0 0 0 0 0 0 0 0 0 0 0 0 0 0 0 0 0 0 0 0 0 0 0 0 0 0 0 0 0 0 0 0 0 0 0 0 0 0 0 0 0
0 0 0 0 0 0 0 0 0 0 0 0 0 0 0 0 0 0 0 0 0 0 0 0 0 0 0 0 0 0 0 0 0 0 0 0 0 0 0 0 0 0 0 0
0 0 0 0 0 0 0 0 0 0 0 0 0 0 0 0 0 0 0 0 0 0 0 0 0 0 0 0 0 0 0 0 0 0 0 0 0 0 0 0 0 0 0 0
0 0 0 0 0 0 0 0 0 0 0 0 0 0 0 0 0 0 0 0 0 0 0 0 0 0 0 0 0 0 0 0 0 0 0 0 0 0 0 0 0 0 0 0
0 0 0 0 0 0 0 0 0 0 0 0 0 0 0 0 0 0 0 0 0 0 0 0 0 0 0 0 0 0 0 0 0 0 0 0 0 0 0 0 0 0 0 0
0 0 0 0 0 0 0 0 0 0 0 0 0 0 0 0 0 0 0 0 0 0 0 0 0 0 0 0 0 0 0 0 0 0 0 0 0 0 0 0 0 0 0 0
0 0 0 0 0 0 0 0 0 0 0 0 0 0 0 0 0 0 0 0 0 0 0 0 0 0 0 0 0 0 0 0 0 0 0 0 0 0 0 0 0 0 0 0
0 0 0 0 0 0 0 0 0 0 0 0 0 0 0 0 0 0 0 0 0 0 0 0 0 0 0 0 0 0 0 0 0 0 0 0 0 0 0 0 0 0 0 0
0 0 0 0 0 0 0 0 0 0 0 0 0 0 0 0 0 0 0 0 0 0 0 0 0 0 0 0 0 0 0 0 0 0 0 0 0 0 0 0 0 0 0 0
Wind_Speed
2 4 3 2 2 3 2 3 3 1 0 3 4 4 4 3 5 5 4 4 4 4 4 3 3 3 3 3 3 3 2 2 2 2 1 1 1 1 1 1 2 2 2 3
5 3 1 1 1 3 4 5 3 1 1 4 5 6 5 4 5 5 5 5 5 4 4 4 3 3 2 3 2 3 2 2 1 1 1 1 1 1 1 1 2 2 2 2
3 2 2 3 3 4 5 5 4 3 2 4 5 6 5 5 5 5 5 5 4 5 5 4 3 3 2 2 2 2 2 2 2 1 1 1 2 1 1 1 1 1 2 1
2 2 3 4 3 4 3 2 4 4 6 3 4 5 3 4 5 6 6 6 5 5 5 4 3 3 3 2 2 3 3 2 2 2 2 2 1 1 1 1 1 1 1 1
2 1 3 3 2 3 2 1 3 4 6 6 5 7 2 4 5 6 7 7 7 6 6 5 4 3 3 3 2 2 2 2 2 2 2 1 1 0 1 1 1 1 1 1
1 1 1 1 1 2 2 3 4 5 6 7 4 7 3 2 3 3 5 6 6 7 7 6 5 4 3 3 3 2 2 2 2 2 2 2 1 1 1 0 1 1 1 1
3 4 2 1 2 4 4 5 4 4 5 3 1 6 4 2 1 3 3 4 5 6 6 6 6 5 4 3 3 3 2 2 2 2 1 1 1 2 2 1 1 1 1 1
4 4 3 1 3 3 4 5 5 5 5 3 3 6 1 2 1 2 3 3 5 6 6 6 5 5 4 4 4 3 3 2 2 2 2 1 1 1 1 2 1 1 1 1
3 2 3 1 2 4 3 3 4 6 7 7 5 3 3 2 2 3 4 4 5 5 5 5 5 5 5 5 5 4 3 3 3 2 2 2 2 2 2 2 2 1 1 1
3 4 2 1 3 0 4 2 4 5 5 7 6 6 4 3 3 3 4 4 4 4 5 5 5 5 5 5 4 4 4 3 3 2 2 1 2 2 2 2 2 2 2 2
4 5 3 4 5 4 4 5 5 4 4 6 7 3 2 2 2 3 4 4 4 4 4 5 5 5 5 5 4 4 4 3 3 2 2 2 2 2 2 2 3 3 3 2
3 5 5 4 1 3 6 6 6 6 5 6 8 5 2 2 2 3 4 4 4 4 4 4 4 5 5 5 5 4 4 4 3 3 2 2 2 2 2 2 3 3 3 3
3 6 5 5 6 5 6 6 7 7 7 7 9 6 2 2 3 3 4 4 4 4 4 4 4 5 5 5 5 4 4 4 3 3 3 2 2 3 3 3 3 3 4 4
5 7 8 8 5 3 6 7 8 9 9 10 12 12 8 7 6 6 5 5 4 4 5 4 4 5 5 5 5 5 5 4 3 3 3 3 3 3 3 3 3 4 4 4
5 8 8 9 7 7 10 11 11 14 14 13 13 14 13 9 7 6 5 4 4 5 5 5 5 4 5 5 5 4 4 4 4 4 4 4 3 3 4 4 4 4 4 4
5 7 6 9 7 9 12 13 13 14 13 14 15 14 9 8 6 5 5 5 6 6 6 6 6 5 5 5 5 5 5 5 5 5 4 4 4 4 4 4 5 4 4 4
5 6 6 8 5 8 11 10 11 10 10 10 13 10 7 7 6 6 6 5 6 6 6 6 6 6 5 5 5 5 5 5 6 5 5 5 5 5 5 5 5 5 5 5
7 7 5 6 6 10 2 1 4 9 10 10 10 9 7 8 8 7 5 6 6 6 6 6 6 5 5 5 4 4 4 5 6 6 5 5 5 5 6 6 6 6 5 5
8 8 6 6 8 10 5 3 3 6 8 7 9 9 7 7 7 5 3 5 5 5 6 6 5 5 5 5 4 4 5 5 6 6 6 6 6 6 6 6 6 6 6 6
6 8 8 7 9 8 2 2 1 6 7 1 5 7 6 6 7 4 4 5 5 5 5 5 5 5 5 5 4 5 6 6 6 6 6 6 6 7 7 7 7 6 6 6
6 7 10 11 10 8 1 1 3 6 4 4 5 6 5 7 7 6 5 5 5 5 5 4 4 5 5 4 5 6 6 7 6 6 6 6 6 7 7 6 6 6 5 6
7 7 8 8 9 6 2 3 4 6 6 6 6 6 6 7 7 6 6 6 5 5 4 4 4 5 4 4 5 6 6 6 5 5 6 6 7 6 6 6 6 6 6 6
8 7 5 7 6 4 2 5 6 7 8 7 7 7 7 7 7 7 6 6 5 5 4 4 4 5 4 5 6 7 6 5 5 6 6 6 7 6 6 6 6 5 5 5
5 5 7 8 8 7 7 7 7 7 8 8 8 7 7 7 7 7 6 6 6 5 5 4 5 5 5 5 6 6 5 5 6 7 7 6 6 6 6 5 5 5 5 5
6 6 8 11 10 8 7 7 7 8 8 8 7 7 7 7 7 7 7 6 5 5 4 4 5 5 6 6 6 6 5 5 6 6 6 6 6 5 5 5 5 6 6 5
8 9 9 9 7 8 9 8 9 9 9 8 8 8 7 7 7 7 6 6 5 5 5 5 5 5 6 6 6 5 5 6 6 5 5 5 5 4 4 5 5 5 6 6
Wind_Direction
185 204 194 197 243 290 250 245 252 296 114 255 251 255 251 216 219 228 212 203 193 178 150 135 136 136 138 141 141 127 140 134 144 146 151 138 125 101 82 50 37 38 28 18
188 183 97 132 192 218 227 241 251 193 193 266 263 264 250 225 221 227 223 200 190 174 154 135 130 133 138 138 136 130 132 115 122 123 166 149 101 83 74 55 38 31 24 20
227 87 134 189 197 224 234 255 271 288 270 235 264 249 213 199 203 209 215 208 192 184 174 155 146 126 119 130 132 131 132 124 118 129 132 125 121 123 105 94 67 29 22 22
193 133 192 208 219 261 250 279 267 259 263 255 264 282 211 192 202 208 206 200 197 189 183 168 156 138 132 137 137 140 133 125 125 130 128 154 150 125 63 30 49 39 24 12
155 166 209 230 259 263 323 286 241 253 265 267 236 266 239 188 223 219 208 200 197 191 186 178 167 157 150 143 143 143 135 124 126 129 125 165 154 104 85 63 50 19 26 3
146 158 279 306 7 192 160 198 199 224 248 256 251 260 272 208 241 230 199 196 196 193 189 185 174 168 164 151 147 150 151 140 142 152 158 166 168 180 135 56 15 344 360 337
188 170 147 193 176 168 224 255 247 233 229 254 184 258 274 8 305 250 222 199 196 192 189 188 186 181 177 167 163 171 173 171 177 190 196 201 201 217 205 230 285 306 313 324
231 195 150 204 262 242 234 262 278 288 286 287 223 252 293 52 359 246 222 205 201 193 193 195 196 190 188 186 187 193 191 192 200 219 232 241 234 257 252 251 258 260 272 289
258 211 112 26 307 265 225 233 305 292 289 278 248 247 246 192 226 222 217 207 201 198 201 204 204 200 199 198 200 204 203 203 209 222 234 248 248 256 257 254 252 256 271 279
274 251 171 161 197 69 291 243 231 254 281 276 268 256 255 231 233 228 229 225 215 208 210 212 209 206 204 205 205 206 213 212 214 220 228 239 250 254 268 258 252 259 266 275
251 250 199 200 225 230 198 215 241 253 265 280 284 281 30 292 284 256 252 243 235 229 226 219 213 208 204 205 203 206 209 214 214 217 225 231 251 251 255 253 251 258 263 264
235 258 248 231 225 289 253 249 242 255 254 256 279 284 77 309 301 279 269 255 242 232 230 223 215 208 204 205 205 208 212 213 215 221 227 229 245 242 245 258 257 257 262 261
208 243 249 210 189 193 228 235 243 260 266 254 261 269 116 312 309 293 274 259 245 238 236 226 218 211 208 209 210 213 216 214 214 220 227 232 240 244 247 259 256 253 257 258
244 245 255 271 300 268 247 239 237 242 252 258 256 275 283 291 294 291 276 261 250 242 239 240 233 222 215 217 217 215 215 208 211 221 231 240 247 254 257 263 257 252 253 256
240 253 255 268 276 266 263 256 244 245 254 264 272 275 284 288 288 287 274 248 247 251 248 241 234 234 229 226 223 219 216 212 212 221 233 244 251 254 256 262 261 253 252 258
237 254 257 257 253 260 263 259 251 249 254 259 268 274 287 292 288 282 270 247 241 243 247 248 242 239 237 234 229 223 220 219 221 226 234 243 248 249 253 258 258 257 255 257
219 238 253 262 266 270 256 247 237 239 242 251 264 278 294 291 282 276 275 265 258 254 251 252 251 247 247 240 234 234 232 225 226 231 235 239 247 251 254 257 257 253 253 256
230 230 247 267 263 250 268 73 249 251 255 252 261 277 283 290 292 286 275 268 265 262 258 257 261 258 251 245 237 237 240 235 231 233 237 238 245 253 255 257 257 254 254 251
232 226 236 247 259 267 257 218 229 254 262 254 259 273 285 300 289 272 289 286 281 272 270 269 266 263 252 241 234 233 240 239 237 237 239 240 243 249 251 253 254 254 253 253
209 227 238 240 255 262 275 68 271 259 258 247 267 280 285 280 278 296 325 304 294 289 282 278 268 255 247 239 232 232 237 241 240 242 244 241 241 244 247 251 253 253 252 253
195 210 227 239 249 261 336 97 204 245 306 345 290 278 268 270 296 316 311 301 296 292 284 274 262 252 248 240 233 237 240 245 251 253 252 247 243 245 247 251 251 252 252 253
219 216 221 229 239 249 107 171 241 299 324 310 297 283 276 285 299 300 298 295 292 287 278 265 255 255 250 237 235 241 246 252 255 255 254 252 249 246 244 249 249 248 248 247
230 235 242 235 255 325 261 269 300 311 302 305 303 298 284 282 288 290 289 286 282 280 274 263 256 257 255 246 243 245 248 251 252 249 249 249 249 248 247 247 245 246 244 246
227 240 246 253 258 274 276 280 292 298 300 302 298 292 280 277 283 285 282 280 276 273 268 262 258 257 257 253 250 254 254 249 248 245 246 246 246 249 249 247 244 243 244 246
242 222 244 256 270 281 268 275 292 294 293 292 291 288 280 278 279 281 280 278 276 272 266 260 257 260 263 258 255 255 254 249 248 249 249 248 245 247 248 245 248 246 246 250
231 232 241 258 269 270 280 288 285 282 282 288 289 288 283 276 276 277 277 279 276 271 270 267 266 265 265 262 260 257 256 252 246 248 248 248 247 242 242 246 247 241 251 248